TimeCST,TemperatureF,Dew PointF,Humidity,Sea Level PressureIn,VisibilityMPH,Wind Direction,Wind SpeedMPH,Gust SpeedMPH,PrecipitationIn,Events,Conditions,WindDirDegrees,DateUTC
12:13 AM,60.8,57.2,88,29.82,9.0,ESE,12.7,-,0.01,Rain,Light Rain,120,2011-11-09 06:13:00
12:37 AM,60.8,57.2,88,29.80,10.0,SSE,15.0,-,0.01,,Overcast,150,2011-11-09 06:37:00
12:52 AM,61.0,57.9,90,29.79,10.0,SE,8.1,17.3,0.01,,Overcast,140,2011-11-09 06:52:00
1:37 AM,60.8,57.2,88,29.78,7.0,SSE,15.0,21.9,0.01,Rain,Light Rain,160,2011-11-09 07:37:00
1:52 AM,61.0,57.9,90,29.77,9.0,SSE,13.8,-,0.02,Rain,Light Rain,160,2011-11-09 07:52:00
2:50 AM,62.6,60.8,94,29.75,4.0,SSW,10.4,-,0.05,Rain,Rain,200,2011-11-09 08:50:00
2:52 AM,62.1,60.1,93,29.74,2.0,SW,9.2,-,0.10,Rain,Heavy Rain,220,2011-11-09 08:52:00
3:00 AM,62.6,60.8,94,29.74,1.2,South,8.1,-,0.10,Rain,Heavy Rain,190,2011-11-09 09:00:00
3:08 AM,62.6,60.8,94,29.74,3.0,South,8.1,-,0.11,Rain,Rain,170,2011-11-09 09:08:00
3:15 AM,62.6,60.8,94,29.73,3.0,South,9.2,-,0.14,Rain,Rain,190,2011-11-09 09:15:00
3:32 AM,62.6,60.8,94,29.74,2.0,SSW,8.1,-,0.16,Rain,Light Rain,200,2011-11-09 09:32:00
3:46 AM,62.6,60.8,94,29.74,3.0,South,8.1,-,0.18,Rain,Light Rain,190,2011-11-09 09:46:00
4:04 AM,62.6,60.8,94,29.74,5.0,SSW,13.8,-,0.00,Rain,Light Rain,210,2011-11-09 10:04:00
4:09 AM,62.6,60.8,94,29.74,4.0,SW,19.6,24.2,0.01,Rain,Light Rain,220,2011-11-09 10:09:00
4:18 AM,64.4,60.8,88,29.74,8.0,SW,17.3,24.2,0.01,Rain,Light Rain,220,2011-11-09 10:18:00
4:31 AM,62.6,60.8,94,29.74,10.0,SW,15.0,-,0.01,,Overcast,230,2011-11-09 10:31:00
4:52 AM,63.0,59.0,87,29.75,10.0,SW,15.0,-,0.01,,Mostly Cloudy,220,2011-11-09 10:52:00
5:06 AM,62.6,57.2,82,29.76,10.0,SW,17.3,24.2,N/A,,Mostly Cloudy,220,2011-11-09 11:06:00
5:23 AM,62.6,55.4,77,29.78,10.0,SW,19.6,25.3,N/A,,Mostly Cloudy,230,2011-11-09 11:23:00
5:52 AM,59.0,50.0,72,29.80,10.0,WSW,24.2,34.5,N/A,,Partly Cloudy,250,2011-11-09 11:52:00
6:52 AM,54.0,45.0,72,29.85,10.0,WSW,15.0,21.9,N/A,,Partly Cloudy,250,2011-11-09 12:52:00
8:33 AM,53.6,42.8,67,29.92,10.0,West,17.3,27.6,N/A,,Overcast,270,2011-11-09 14:33:00
8:52 AM,52.0,39.9,63,29.93,10.0,West,13.8,25.3,N/A,,Overcast,270,2011-11-09 14:52:00
9:16 AM,51.8,39.2,62,29.95,10.0,West,18.4,26.5,N/A,,Overcast,280,2011-11-09 15:16:00
9:52 AM,51.1,39.9,66,29.98,10.0,West,15.0,27.6,N/A,,Overcast,270,2011-11-09 15:52:00
10:52 AM,51.1,37.9,61,30.02,10.0,West,11.5,19.6,N/A,,Overcast,280,2011-11-09 16:52:00
11:52 AM,48.9,36.0,61,30.05,10.0,West,15.0,27.6,N/A,,Overcast,280,2011-11-09 17:52:00
12:52 PM,48.9,36.0,61,30.08,10.0,WNW,12.7,26.5,N/A,,Overcast,290,2011-11-09 18:52:00
1:52 PM,48.0,35.1,61,30.09,10.0,WNW,19.6,28.8,N/A,,Overcast,300,2011-11-09 19:52:00
2:52 PM,48.0,35.1,61,30.12,10.0,NW,13.8,23.0,N/A,,Overcast,310,2011-11-09 20:52:00
3:52 PM,48.0,34.0,58,30.13,10.0,NW,16.1,29.9,N/A,,Overcast,310,2011-11-09 21:52:00
4:52 PM,46.0,34.0,63,30.16,10.0,NW,5.8,-,N/A,,Clear,310,2011-11-09 22:52:00
5:52 PM,44.1,34.0,68,30.18,10.0,Calm,Calm,-,N/A,,Clear,0,2011-11-09 23:52:00
6:52 PM,39.0,34.0,82,30.19,10.0,Calm,Calm,-,N/A,,Clear,0,2011-11-10 00:52:00
7:52 PM,39.0,34.0,82,30.19,10.0,SW,3.5,-,N/A,,Clear,220,2011-11-10 01:52:00
8:52 PM,37.9,33.1,83,30.20,10.0,Calm,Calm,-,N/A,,Clear,0,2011-11-10 02:52:00
9:52 PM,35.1,32.0,89,30.20,10.0,SW,3.5,-,N/A,,Clear,220,2011-11-10 03:52:00
10:52 PM,37.9,32.0,79,30.20,10.0,West,4.6,-,N/A,,Clear,260,2011-11-10 04:52:00
11:52 PM,39.0,32.0,76,30.20,10.0,West,5.8,-,N/A,,Clear,270,2011-11-10 05:52:00